Regional Weather Roundup
Issued by NWS Goodland, KS

Home | Current Version | Previous Version | Graphics & Text | Print | Product List | Glossary On
Versions: 1 2 3 4 5 6 7 8 9 10 11 12 13 14 15 16 17 18 19 20 21 22 23 24 25 26 27 28 29 30 31 32 33 34 35 36 37 38 39 40 41 42 43 44 45 46 47 48 49 50
642
ASUS43 KGLD 211759
RWRGLD

GOODLAND FORECAST AREA HOURLY WEATHER ROUNDUP
NATIONAL WEATHER SERVICE GOODLAND KS
1200 PM MDT SAT APR 21 2018

...OFFICIAL OBSERVATIONS...

CITY           SKY/WX    TMP DP  RH WIND       PRES   REMARKS
GOODLAND KS    CLOUDY    42  39  89 E9        30.18F
HILL CITY KS   CLOUDY    45  44  97 E12       30.20F
IMPERIAL NEB   CLOUDY    40  39  97 NE6       30.24R
MCCOOK NEB     CLOUDY    44  41  89 NE13      30.22S
AKRON CO       LGT SNOW  34  33  96 E3        30.20S FOG
BURLINGTON CO  CLOUDY    40  36  86 NE6       30.18S
LIMON CO       FLURRIES  36  34  92 NW9       30.17S
$$

...UNOFFICIAL OBSERVATIONS...

CITY           SKY/WX    TMP DP  RH WIND       PRES   REMARKS
NORTON KS      CLOUDY    45  39  81 NE9       30.21
SHARON SPRINGS   N/A     41  40  95 NE9         N/A
KIT CARSON CO    N/A     40  36  87 CALM        N/A
YUMA CO        CLOUDY    36  34  93 NE3       30.21R
$$




USA.gov is the U.S. government's official web portal to all federal, state and local government web resources and services.